Regional Weather Roundup
Issued by NWS

Home | Current Version | Previous Version | Graphics & Text | Print | Product List | Glossary On
Versions: 1 2 3 4 5 6 7 8 9 10 11 12 13 14 15 16 17 18 19 20 21 22 23 24 25 26 27 28 29 30 31 32 33 34 35 36 37 38 39 40 41 42 43 44 45 46 47 48 49 50
000
ASUS45 KCYS 201910
RWRWY

WYOMING REGIONAL WEATHER ROUNDUP
NATIONAL WEATHER SERVICE CHEYENNE WY
100 PM MDT SAT SEP 20 2014

NOTE:  "FAIR" INDICATES FEW OR NO CLOUDS BELOW 12,000 FEET
WITH NO SIGNIFICANT WEATHER AND/OR OBSTRUCTIONS TO VISIBILITY.

WYZ001-202000-
YELLOWSTONE NATIONAL PARK

CITY           SKY/WX    TMP DP  RH WIND       PRES   REMARKS
LK YELLOWSTONE   N/A     58  42  55 E5        30.45F
W YELLOWSTONE  NOT AVBL

$$
WYZ002>013-054>058-071-098>099-202000-
NORTHERN WYOMING

CITY           SKY/WX    TMP DP  RH WIND       PRES   REMARKS
JACKSON        SUNNY     66  43  42 S6        30.34F
CODY             N/A    N/A N/A N/A MISG        N/A
GREYBULL       SUNNY     76  37  24 NW12      30.24S
WORLAND        SUNNY     74  40  29 N7        30.25F
SHERIDAN       SUNNY     72  42  34 N14G23    30.27R
BUFFALO        SUNNY     68  41  37 N20G26    30.30R
GILLETTE       SUNNY     71  41  33 NW21G28   30.26R
HULETT         FAIR      70  37  30 MISG      30.25
NEWCASTLE      FAIR      72  36  26 NW18G29   30.23

$$
WYZ014>020-022>026-101>103-202000-
CENTRAL WYOMING

CITY           SKY/WX    TMP DP  RH WIND       PRES   REMARKS
BIG PINEY      SUNNY     72  37  28 SW9       30.36F
PINEDALE       CLEAR     70  34  26 SE5       30.37F
DUBOIS         FAIR      70  30  23 E6        30.34F
LANDER         SUNNY     76  42  29 N9        30.27S
RIVERTON       SUNNY     71  42  35 NE7G18    30.29F
CASPER         SUNNY     75  41  29 NE8       30.28S
DOUGLAS        MOSUNNY   77  45  32 N17       30.26F

$$
WYZ021-027>030-104>119-202000-
SOUTHERN WYOMING

CITY           SKY/WX    TMP DP  RH WIND       PRES   REMARKS
EVANSTON       SUNNY     72  32  23 CALM      30.36F
KEMMERER       CLEAR     72  32  23 SE9       30.38F
FORT BRIDGER   FAIR      69  37  30 NE6       30.39F
ROCK SPRINGS   SUNNY     71  34  25 VRB3      30.35F
DIXON          FAIR      74  36  24 CALM      30.35F
RAWLINS        SUNNY     74  35  24 VRB5      30.34F
SARATOGA       FAIR      70  36  28 CALM      30.36F
LARAMIE        SUNNY     73  37  27 N6        30.35F
CHEYENNE       MOSUNNY   76  44  32 E10       30.28F
TORRINGTON     SUNNY     79  48  33 NW7       30.19F
PINE BLUFFS    FAIR      77  45  31 CALM      30.25S

$$


USA.gov is the U.S. government's official web portal to all federal, state and local government web resources and services.